Location: Unspecified
(0.0000°N, 0.0000°E)
Time: 07:20:14
(UTC+00:00)

N. Korean satellite - Pass Details

Date: 29 November 2020
Orbit: 452 x 504 km, 97.2° (Epoch: 27 November)

Event Time Altitude Azimuth Distance (km) Brightness Sun altitude
Rises 05:11:11 0° 7° (N) 2,567 10.1 -8.6°
Reaches altitude 10° 05:13:14 10° 5° (N) 1,693 9.1 -8.2°
Maximum altitude 05:16:52 70° 281° (W) 534 6.6 -7.3°
Drops below altitude 10° 05:20:33 10° 197° (SSW) 1,712 9.4 -6.5°
Sets 05:22:39 0° 194° (SSW) 2,600 10.4 -6.0°
